Location: Brantley
(31.5822°N, 86.2569°W)
Time: 03:45:53
(UTC+00:00)

Courier 1B Rocket - Pass Details

Date: 20 February 2026
Orbit: 920 x 1201 km, 28.2° (Epoch: 7 March)

Event Time Altitude Azimuth Distance (km) Brightness Sun altitude
Rises 22:54:48 0° 234° (SW) 3,586 9.6 7.7°
Reaches altitude 10° 22:57:38 10° 226° (SW) 2,621 8.6 7.1°
Maximum altitude 23:03:19 37° 161° (SSE) 1,384 5.9 5.9°
Drops below altitude 10° 23:09:00 10° 95° (E) 2,613 6.7 4.8°
Sets 23:11:48 0° 88° (E) 3,575 7.3 4.2°
